CAPE
667 1037 1286 1703 1578 641 347 73 50 41 38 21 0 0 5 0 3 100 0 0 0 166 428 716 1125 1099 1096 1066 1420 1448 1226 1273 1276 1462 1235 1264 1206 1190 1256 1261 1239 1396 1630 1429 1345 1382 1663 1791 1784
720 1250 2030 1965 745 95 315 81 69 63 41 19 5 0 8 0 0 0 0 0 0 103 348 363 1443 1072 1260 1479 1412 1342 1533 1267 1205 1142 1392 1356 1162 1273 1217 1362 1233 1359 1644 1387 1294 1346 1542 1470 1742
1068 1565 2191 1191 104 155 258 148 106 70 41 36 20 0 6 0 0 0 0 0 1 159 257 998 1417 1358 1233 1449 1314 1329 1449 1453 1178 1271 1304 1289 1277 1269 1217 1296 1320 1388 1406 1577 1316 1279 1352 1595 1729
1866 2216 2039 297 120 242 260 308 130 117 62 49 59 38 2 0 0 0 0 0 0 26 130 862 1311 1435 1214 1320 1255 1207 1207 1317 1150 1361 1395 1188 962 1247 1385 1231 1364 1292 1227 1576 1438 1439 1191 1334 1571
592 669 470 121 156 308 388 296 285 212 97 65 78 58 96 0 0 2 0 0 1 4 254 560 1445 1513 1480 1502 1251 1328 1187 1191 1202 1290 1117 782 807 684 310 376 380 1087 1282 1239 1505 1456 1300 1180 1303
1041 408 172 146 277 419 506 386 340 255 146 79 73 150 131 0 62 39 33 5 43 301 267 383 1295 1555 1596 1574 1512 1367 1448 1185 1226 929 963 109 162 147 563 643 454 443 1247 1066 1055 898 933 1040 905
778 553 275 153 184 410 561 595 379 265 178 93 97 248 173 29 254 400 191 273 357 242 497 357 639 1190 1482 1501 1398 1347 1362 1272 1227 883 563 328 88 115 125 495 614 656 827 769 823 975 927 831 695
1130 773 326 212 148 361 547 541 308 235 159 62 64 328 341 246 230 198 318 353 287 304 634 352 353 570 540 772 1579 1153 1086 975 1031 938 2 62 0 0 3 33 423 608 536 682 757 807 943 876 764
619 527 373 259 155 204 476 385 175 54 67 56 31 97 227 403 210 76 140 106 234 246 338 254 254 478 1015 1357 1331 1562 1267 1367 1087 780 69 1 184 0 0 58 94 541 498 622 761 847 833 824 689
624 600 495 375 346 376 374 286 250 165 71 55 44 52 261 376 328 182 483 854 386 213 265 396 384 394 622 518 922 1347 867 1276 1360 681 339 286 29 130 64 35 75 288 616 749 691 774 759 691 360
392 398 456 295 287 351 414 173 172 183 188 144 126 322 445 390 386 422 721 706 603 427 342 360 576 691 768 533 605 775 974 1391 1180 1225 729 612 341 86 561 844 403 571 709 1053 620 587 382 284 203
258 175 213 243 243 326 337 158 64 59 100 26 86 410 515 536 458 763 406 358 421 540 546 397 397 648 633 366 546 461 616 790 813 1399 1305 701 1022 989 1116 1404 274 745 556 911 802 186 147 331 592
421 277 165 126 286 366 250 192 87 6 0 0 174 423 579 630 737 364 230 255 319 394 490 394 319 876 832 863 529 722 1147 1099 1017 1362 1320 1339 1775 1500 865 1336 1532 1021 857 403 606 186 194 166 272
532 497 227 157 200 196 65 7 0 0 0 79 337 515 641 801 638 351 454 447 553 567 467 274 387 870 805 1052 1513 1593 1470 1312 1271 1276 1397 1745 2174 1974 1837 1720 1596 1251 1353 1334 424 476 146 137 41
199 154 366 174 127 87 21 34 0 0 32 299 466 549 567 550 460 511 694 498 836 1054 844 984 1146 1220 1639 1682 1802 1601 1300 840 1115 1188 1667 1930 2062 2021 1810 1950 1709 1072 1494 1320 1113 931 602 323 85
280 300 193 395 229 101 90 216 0 0 70 285 314 431 382 540 572 530 296 346 502 685 1110 1107 833 831 1240 1193 1551 1344 1103 1121 1174 1523 1682 1810 2077 2232 2111 1723 1947 1428 1378 1278 1015 935 713 682 255
284 238 306 331 381 257 124 247 0 0 28 110 216 214 221 395 525 514 225 282 66 63 584 798 808 767 852 1286 1397 1215 1138 864 960 1455 2038 1633 2042 2156 2014 2079 2128 1817 1323 1257 1104 1026 861 876 365
119 161 162 295 427 281 238 202 0 0 13 25 63 67 154 159 170 171 118 35 37 42 136 417 430 637 877 1230 1437 1159 934 651 811 1388 1673 1842 1776 1982 1826 1910 2017 2012 1616 1272 1062 1243 858 979 385
164 111 148 168 261 294 330 241 62 0 0 10 24 0 18 27 66 66 59 33 45 72 84 112 209 396 412 1027 921 766 610 634 1162 1319 1916 2483 2007 1952 2111 1587 2022 1953 1686 1533 1281 975 920 801 354
238 257 271 178 243 250 485 376 289 4 0 0 26 0 0 0 34 33 21 28 45 49 90 146 194 217 603 681 1088 614 582 901 1295 1514 2126 2561 2351 2231 2096 2201 1759 2167 2097 1523 1519 1192 779 617 321
303 333 282 263 319 340 412 510 338 205 2 0 0 11 0 0 0 19 29 20 9 15 10 28 206 502 767 718 1224 1155 979 1491 1535 1745 2002 2334 2479 2452 2520 2081 2319 2514 2862 1961 1727 1534 1268 756 745
446 229 210 296 282 383 134 475 522 292 110 21 29 19 28 10 10 9 25 38 21 23 34 68 218 717 1061 1181 896 1079 884 1017 1214 1513 1904 2097 2454 2432 2476 2769 2710 2732 1720 1964 2018 1861 1725 1763 1935
335 336 236 296 299 278 240 136 592 402 247 100 58 37 11 22 30 35 45 51 56 80 50 67 352 1013 1004 1391 1265 1131 1015 915 1346 1565 2494 2626 2590 2647 2500 2963 3101 3002 2582 2147 2210 1902 2127 1718 1675
384 541 437 328 272 317 164 178 419 451 436 266 94 57 71 61 61 70 94 96 71 61 124 255 739 1488 1396 1486 1764 1567 1033 1408 1310 1673 1840 1775 1954 2154 2904 2519 2794 3104 2889 2563 2301 2429 2360 2440 2748
546 416 433 365 251 129 177 244 215 176 223 341 154 103 101 105 119 111 136 142 204 252 310 478 945 1730 1712 1614 1635 1743 1553 2128 2005 2238 1834 1856 1684 1835 2325 2807 2817 2467 2677 2670 2600 2517 2435 2473 2344
448 274 235 320 160 140 412 278 449 357 301 334 326 86 135 167 153 162 196 233 337 488 635 777 1036 1677 1706 1797 1800 1993 1905 1620 1867 1835 1780 1666 1695 1778 2780 2654 2534 2723 2830 2843 2869 2759 2302 1799 2434
541 525 214 236 280 389 84 123 151 260 392 752 661 351 211 242 207 183 170 192 244 421 639 996 1215 1512 1670 1770 2056 2292 2338 2166 1676 1949 2250 1871 2111 2061 2944 2919 2784 2650 2520 2639 2876 2531 2341 2345 2142
217 416 355 269 259 211 127 143 120 244 481 1088 858 724 589 562 420 315 205 103 158 275 443 877 1057 1281 1411 1467 1988 2125 2151 2442 2364 2434 2405 2039 2155 2790 2931 3105 2960 3097 3005 2791 2827 2771 2268 2480 2913
291 335 202 97 146 156 191 232 117 715 948 835 927 874 875 581 486 396 445 352 346 295 355 600 924 1098 1419 1602 1745 1990 2099 2089 2372 2206 2371 2486 2618 2975 3200 3418 3017 2707 2521 2557 2500 2228 1908 1534 1607
4 63 60 82 236 169 121 201 186 748 871 888 1037 1018 966 717 639 336 522 579 632 665 809 982 1241 1286 1417 1968 2137 2095 2118 2183 1934 2216 2311 2780 3176 3251 3487 2642 2069 2097 2038 1854 1601 1595 1036 986 689
CIN
-121 -61 -42 -20 0 0 0 -4 -19 -42 -47 -60 0 0 -65 0 -38 0 0 0 0 -8 0 0 0 0 0 0 0 0 0 0 0 0 0 0 -3 -4 -2 0 0 0 0 0 0 0 0 0 0
-92 -66 -18 -15 -3 -1 0 -1 -3 -6 -30 -54 -82 0 -52 0 0 0 0 0 0 -8 0 0 -1 0 0 -1 0 -1 0 0 -2 0 0 -1 -1 0 -2 0 -3 -3 -1 0 0 0 -2 -3 0
-104 -60 0 0 -1 -4 0 -14 -35 -26 -35 -25 -38 -24 -40 0 0 0 0 0 0 -5 -2 0 0 0 0 -2 0 0 0 0 -3 0 0 0 -1 0 -1 -2 0 -1 -1 0 0 0 0 0 0
-44 -16 -20 -1 -10 0 0 0 -35 -80 -29 -20 -9 -24 -127 0 0 0 0 0 0 -8 -4 -9 0 0 0 -1 -2 0 -1 0 -1 -1 -2 -5 -12 -4 0 -2 -1 -1 0 0 0 0 0 0 0
-134 -79 0 -39 -8 0 0 -2 -6 -12 -20 -21 -15 -29 -36 0 0 -139 0 0 0 0 0 0 0 0 -1 -1 -1 -2 0 -1 -4 -1 -3 -2 -3 -4 -9 -9 -9 -5 0 0 0 0 0 0 0
-40 -40 -6 -16 0 0 0 0 0 -3 -18 -21 -22 -37 -41 0 -108 -117 -75 -20 -4 0 0 -2 -2 -1 -3 -2 -2 -1 -1 0 -1 -4 -1 -17 -3 -5 -4 -5 -5 -7 0 0 0 0 0 -1 0
-27 0 0 -45 -8 0 0 0 -1 0 -9 -27 -48 -1 -45 -75 -24 -14 -45 -5 0 -5 0 0 0 -1 -2 -3 -1 0 -1 -3 0 0 0 -27 -12 -8 -25 -1 -3 -6 -1 -1 0 0 0 -1 -5
-49 0 0 -4 -12 0 -1 0 -8 -3 -16 -40 -30 -4 -13 -30 -33 -39 -3 -2 -3 -15 0 0 0 0 0 0 -3 0 0 0 0 -1 -5 -26 -1 0 -1 -27 -2 -1 -1 0 0 0 0 -1 -2
-81 -1 0 0 -4 0 -3 -1 -33 -52 -40 -42 -58 -27 -18 -29 -33 -40 -18 -29 -8 -11 -1 -1 -1 0 -1 0 -1 -1 -4 -1 -1 -2 -39 -54 -3 0 0 -23 -6 -2 0 -1 0 0 0 -4 -8
-19 0 0 -30 -12 0 -5 -13 -16 -13 -21 -33 -41 -49 -25 -27 -13 -12 0 0 0 -10 -5 0 -1 0 0 0 0 0 0 0 -1 -7 -16 -11 -34 -8 -13 -26 -5 -2 -1 0 0 0 -3 -15 0
-18 -26 -23 -28 -22 -9 -8 -43 -14 -6 -1 -4 -18 -13 -15 -12 -3 -1 0 0 0 -1 -8 -11 0 0 -3 0 0 0 0 0 -2 -6 -4 -4 -2 -12 -3 -1 -2 -1 -1 0 -1 -1 0 0 -1
-10 -52 -44 -42 -27 -14 -19 -28 -30 -44 -20 -17 -9 -4 0 -1 0 0 -2 -6 -2 -1 -9 -13 -7 -18 -7 0 0 0 0 0 0 0 0 -7 0 0 0 0 0 0 0 0 0 0 0 0 0
-1 -22 -46 -46 -22 -14 -26 -19 -33 -34 0 0 -15 -1 0 0 0 -25 -34 -30 -40 -12 -15 -20 -27 -41 -14 -7 -6 0 0 -1 0 0 0 0 0 0 0 0 0 0 0 0 0 0 0 -1 0
-16 -22 -34 -35 -25 -20 -15 -21 0 0 0 -49 -7 0 0 0 0 -25 -8 -31 -4 0 -5 -20 -26 -23 -4 -6 -7 0 0 0 0 0 0 -1 0 0 0 0 0 0 0 0 0 0 0 -2 -28
-55 -25 -6 -18 -23 -31 -20 -21 0 0 -23 -17 0 0 0 0 0 -3 0 -2 0 0 0 0 0 0 -2 -2 -1 0 0 0 0 -3 -1 -2 0 0 0 0 0 0 0 0 0 0 0 0 -14
-17 -7 -7 -2 -22 -30 -37 -1 0 0 -38 -3 -1 0 0 0 0 0 -15 -11 -12 -12 -1 0 0 0 0 0 0 0 0 0 0 0 0 -1 0 0 0 0 0 0 0 0 0 0 0 0 0
-3 -1 0 -2 -22 -10 -17 -2 0 0 -62 -12 -2 0 0 0 0 0 0 -2 -39 -62 -23 -12 -17 -5 0 -3 0 0 -1 0 0 0 0 0 0 0 -1 -1 0 0 0 0 0 0 0 0 0
0 0 -1 -1 -8 -16 -7 -12 0 0 -73 -70 -25 -7 -1 -7 -9 -15 -50 -27 -34 -59 -65 -40 -20 -25 -23 0 -3 0 0 -2 -3 0 0 -1 0 -6 0 0 0 0 0 0 0 0 0 0 -4
-8 0 0 -6 -21 -12 -3 -3 -39 0 0 -67 -105 0 -6 -1 0 -3 -17 -25 -47 -59 -57 -49 -45 -31 -26 -7 0 0 0 0 0 0 -3 -6 -2 -5 -1 0 0 0 0 0 0 0 0 0 -9
-37 -11 0 -16 -27 -20 -6 -1 -19 -10 0 0 -85 0 0 0 -14 -28 -39 -48 -44 -37 -40 -83 -45 -47 -34 -10 -5 -7 -1 0 0 0 -1 -10 -8 -6 -1 0 0 0 0 0 0 0 0 -3 -15
-12 -14 0 -6 -21 -21 -16 -3 -16 -41 -25 0 0 -90 0 0 0 -42 -49 -61 -87 -76 -61 -35 -38 -42 -50 -31 -17 -17 -8 -6 0 0 0 -1 -11 -2 -1 0 0 0 0 0 0 0 0 0 0
0 -37 -33 -32 -13 0 -32 0 -18 -31 -56 -91 -81 -109 -87 -75 -81 -76 -46 -31 -23 -16 -31 -60 -43 -45 -39 -45 -32 -19 0 0 0 -1 0 0 -9 -2 0 0 0 0 0 0 0 0 0 0 0
-41 -53 -24 -21 -10 -13 -19 -3 -23 -35 -45 -68 -71 -84 -105 -100 -118 -104 -83 -50 -14 -20 -22 -35 -37 -60 -47 -59 -34 -23 -20 0 0 0 -2 -6 -7 -7 0 0 0 0 0 0 0 0 0 0 0
-94 -42 -48 -46 -14 -1 -13 -7 -1 -29 -24 -36 -65 -68 -84 -95 -114 -113 -102 -74 -53 -37 -31 -24 -31 -69 -75 -72 -58 -40 -21 -7 -1 -1 0 0 0 0 -2 0 0 0 0 0 0 0 0 0 0
-54 -11 0 0 0 0 -34 -14 0 -19 -28 -17 -39 -53 -74 -74 -90 -90 -86 -63 -29 -12 -12 -16 -31 -51 -70 -77 -65 -55 -46 -24 -17 -7 0 0 0 0 -1 -8 -2 0 0 0 0 0 0 0 0
-28 -13 0 0 0 0 -54 -1 -2 -25 -45 -54 -31 -44 -41 -47 -60 -59 -62 -39 -14 -12 -13 -20 -21 -43 -60 -81 -82 -72 -66 -36 -21 -13 0 0 0 0 -1 -3 -8 0 0 0 0 0 0 0 0
-26 -17 -32 -4 -12 -16 -2 -11 -58 -56 -46 -40 -37 -56 -51 -29 -42 -43 -53 -47 -19 -9 -11 -14 -18 -24 -38 -48 -80 -92 -77 -64 -19 -21 -15 -2 -5 0 -5 -3 -2 -2 -2 -1 0 0 0 0 0
-50 -40 -10 -24 -2 -1 0 -9 -2 -42 -37 -31 -47 -53 -42 -41 -23 -11 -21 -33 -32 -12 -5 -14 -14 -17 -24 -35 -66 -73 -71 -71 -49 -36 -34 -20 -5 -3 0 0 0 0 -2 -4 -1 -2 0 0 -1
-28 -8 -21 -24 -11 -1 0 -1 -50 -18 -32 -37 -50 -67 -54 -47 -26 -8 -16 -19 -26 -14 -5 -7 -12 -18 -27 -36 -54 -73 -69 -62 -61 -46 -41 -32 -10 0 0 -1 -21 -26 -9 -14 -9 -7 -12 -3 0
-132 -44 -41 -4 -3 -17 -14 -1 -117 -53 -45 -56 -65 -83 -88 -77 -45 -72 -43 -63 -43 -29 -20 -26 -35 -35 -47 -78 -90 -86 -76 -74 -39 -45 -48 -20 -11 -14 -29 -120 -159 -143 -152 -55 -21 -1 0 0 0
Wind_Speed
10 6 3 3 6 2 9 7 12 13 12 7 10 3 6 5 6 6 10 10 14 14 13 11 8 8 9 8 7 7 7 7 7 7 7 6 6 5 5 7 7 6 8 10 11 11 13 14 15
2 3 4 4 5 7 7 9 13 8 11 17 11 5 1 2 4 8 14 11 15 13 12 13 9 9 8 10 7 7 9 8 7 8 7 7 7 6 8 8 8 7 9 10 10 11 12 13 14
4 5 5 5 7 10 9 9 10 11 16 11 6 2 1 4 3 14 12 15 15 11 9 15 9 8 7 7 9 8 8 9 7 7 7 6 7 7 8 7 7 8 9 9 10 10 11 12 14
4 4 5 1 13 9 11 11 13 14 14 6 6 6 7 3 9 10 12 14 13 12 10 14 9 8 9 8 7 6 7 9 8 7 8 5 3 6 8 7 6 8 9 10 8 11 11 12 13
4 2 4 8 11 9 10 12 13 13 11 9 5 7 5 10 4 9 12 13 12 11 11 14 9 9 9 8 6 8 7 6 7 7 8 10 6 4 5 6 6 6 8 9 10 9 10 11 11
4 4 2 8 11 8 8 10 8 7 7 8 6 8 8 13 11 15 12 10 12 11 10 14 10 7 8 6 7 6 8 7 8 7 11 12 7 9 5 3 6 7 9 9 9 10 10 9 9
4 4 5 5 7 7 8 9 7 6 8 8 5 8 7 14 14 12 11 14 10 10 9 10 14 10 7 7 6 5 6 6 6 9 10 11 7 7 7 8 2 6 7 6 8 9 9 9 8
4 5 5 2 3 10 8 7 4 2 6 8 6 6 9 14 15 15 13 12 10 10 10 8 11 12 10 12 7 6 5 4 6 10 8 7 5 4 1 8 2 4 6 8 6 8 8 8 7
2 5 4 3 2 5 9 6 4 1 9 5 7 1 10 19 16 15 13 9 11 8 9 9 7 9 7 1 8 8 7 5 5 11 9 1 1 3 3 7 7 4 6 7 8 7 8 8 7
5 4 4 5 3 2 5 2 5 5 9 5 7 5 17 19 16 16 14 13 11 13 10 9 8 9 7 6 4 5 3 5 4 8 6 6 4 4 5 8 6 3 7 8 7 6 7 11 8
3 3 4 2 5 6 6 6 4 4 7 5 9 13 18 16 16 15 14 13 11 12 9 11 9 6 7 5 5 4 4 4 5 6 8 7 6 5 5 3 3 4 7 5 8 7 8 4 3
5 5 2 4 2 4 9 8 4 1 7 5 5 15 19 18 17 15 11 11 10 12 11 11 10 7 7 5 5 3 4 3 4 8 8 6 6 6 6 4 7 6 6 7 6 4 2 4 4
2 5 2 2 4 6 7 3 5 5 3 5 13 17 17 17 15 14 15 11 11 11 12 11 10 7 7 5 3 4 3 4 6 5 5 6 5 5 5 4 4 6 5 7 7 5 5 5 6
3 2 2 5 7 6 4 5 4 6 6 11 15 17 16 15 15 12 12 11 11 10 11 11 9 9 9 6 5 4 4 5 4 3 3 6 5 4 4 4 3 5 6 6 6 6 6 6 5
6 4 2 4 5 3 5 6 8 7 9 13 16 15 14 12 11 11 9 13 10 8 10 10 9 11 8 7 6 5 5 5 2 3 1 4 4 4 3 3 3 4 5 7 6 7 7 6 5
4 3 6 6 5 3 6 7 8 8 11 15 15 13 12 11 12 12 13 13 9 7 8 7 6 7 9 6 5 5 3 3 1 3 1 3 3 4 3 3 3 4 5 6 5 6 7 7 6
8 3 8 4 5 2 8 5 10 10 12 14 14 14 13 11 9 10 12 10 9 9 8 7 7 6 4 4 5 4 4 4 3 3 2 3 4 4 3 2 3 6 4 4 4 5 6 6 6
2 1 4 4 7 7 4 4 11 11 12 14 13 13 12 13 14 14 14 11 12 10 10 8 6 7 5 5 4 5 4 4 3 4 2 4 2 4 2 1 3 4 6 5 5 6 6 6 5
6 4 4 3 3 5 4 6 10 12 12 13 14 13 13 12 11 14 14 13 12 11 11 9 8 6 5 5 5 5 5 3 4 4 4 5 5 4 3 1 2 3 4 5 7 6 6 7 5
7 6 3 2 4 7 5 7 11 13 13 13 14 14 15 15 14 13 12 11 12 11 10 9 9 7 7 6 5 3 3 4 3 3 3 5 6 5 5 2 2 4 4 6 7 6 5 6 6
5 7 2 6 5 6 4 8 11 14 12 13 15 14 15 15 15 16 16 14 13 13 12 11 10 10 9 9 6 5 4 4 5 5 5 3 5 6 4 4 3 4 4 7 8 8 8 6 7
5 4 3 5 8 1 8 4 12 16 16 16 17 16 16 16 15 14 15 15 14 12 11 10 9 9 10 10 9 9 7 5 2 3 1 3 4 6 5 5 4 4 3 2 7 7 7 7 4
5 6 5 6 7 6 9 7 10 15 16 20 19 18 18 18 18 17 15 12 13 11 10 9 8 10 9 11 10 9 10 6 6 4 3 2 3 6 6 6 5 5 5 4 4 5 8 7 7
3 4 6 5 7 5 5 8 11 12 19 20 20 20 18 18 17 17 16 14 11 9 8 8 9 9 11 12 12 11 8 8 5 6 4 5 2 3 4 5 5 5 4 5 6 7 9 9 6
7 8 3 8 7 7 4 6 7 8 5 16 20 20 19 17 17 16 15 14 11 11 10 9 9 10 12 13 13 13 12 10 9 8 6 5 3 3 4 4 5 6 6 7 7 6 8 8 8
3 7 6 5 6 6 4 2 7 4 6 5 12 19 19 19 18 17 15 14 12 12 11 10 10 10 12 13 13 12 12 9 9 9 7 5 4 2 4 3 5 6 6 7 7 8 8 8 8
7 6 6 9 5 6 3 5 9 7 7 7 9 12 17 19 18 18 17 15 13 12 10 10 10 10 11 13 12 12 11 12 8 8 6 7 6 4 4 3 3 5 6 7 8 8 8 8 9
11 5 5 4 4 6 5 3 7 8 8 7 7 10 17 16 18 17 15 15 12 12 11 10 10 10 10 11 12 11 12 11 10 8 8 6 4 4 3 2 3 4 6 7 8 10 9 9 7
7 7 5 6 5 6 5 8 6 4 5 6 6 4 9 15 13 12 11 11 12 9 7 9 9 8 7 7 9 10 9 9 9 8 8 8 6 4 3 4 4 5 7 8 8 8 8 7 7
8 10 9 7 4 2 6 3 3 3 4 4 8 7 8 11 12 9 10 10 8 7 6 4 3 4 5 6 7 7 7 8 9 9 9 7 8 8 10 11 8 10 8 6 6 6 6 5 5
Wind_Direction
205 207 255 252 234 186 77 73 105 106 126 105 94 84 76 25 7 38 132 130 131 141 129 160 151 150 158 152 143 131 132 124 139 137 137 148 146 153 157 153 137 134 125 106 107 111 116 119 125
136 204 231 265 266 80 76 107 117 120 115 124 110 91 210 107 56 124 140 154 148 137 147 140 145 148 164 140 142 137 141 138 144 140 131 142 137 147 134 135 134 133 113 114 109 114 117 119 123
211 243 261 286 35 57 104 116 109 101 138 142 118 46 236 111 145 136 112 153 150 142 126 103 140 156 146 137 141 141 143 128 127 125 123 137 134 139 135 121 125 114 117 117 118 112 116 120 118
209 204 230 34 87 63 106 117 128 134 160 128 104 111 126 175 157 138 156 155 149 147 142 122 139 146 138 141 133 134 129 131 140 116 121 117 113 128 127 130 129 129 123 118 122 120 125 125 126
232 241 203 86 82 79 108 130 146 147 159 174 188 134 103 126 111 143 163 163 152 147 133 139 146 148 143 135 156 140 133 117 127 114 96 58 56 65 100 128 141 135 124 126 127 128 134 133 130
241 262 206 81 94 108 120 144 162 149 141 136 176 140 121 144 153 150 172 148 145 145 150 125 137 161 139 131 120 127 127 117 102 108 96 114 60 41 38 117 135 146 137 128 132 131 131 128 138
286 263 84 96 68 110 125 153 168 157 168 165 133 146 119 158 149 127 151 166 149 145 147 153 152 147 148 135 130 120 127 129 112 99 97 101 83 61 13 3 140 161 134 142 141 138 137 136 143
292 278 156 72 81 93 130 151 128 212 121 123 171 168 166 160 152 153 163 142 150 157 160 155 150 156 173 163 152 142 138 129 125 114 88 42 48 17 71 312 245 165 148 138 145 153 155 147 143
278 238 137 125 141 101 144 167 112 134 147 182 163 200 136 149 160 159 150 154 157 168 162 158 157 142 130 183 135 177 180 169 145 118 125 47 81 203 256 310 322 190 160 143 142 151 164 162 148
252 238 72 64 289 234 152 212 167 175 164 160 159 162 141 155 167 170 167 157 180 169 175 153 161 163 152 159 164 207 191 151 172 146 161 177 191 241 213 248 269 194 178 168 152 148 159 200 172
155 132 140 49 317 234 154 170 201 222 208 179 174 152 154 162 171 172 181 160 192 168 164 166 171 183 162 204 194 200 188 188 155 156 168 185 201 210 201 222 226 204 187 174 187 177 215 165 235
144 159 178 345 25 129 157 162 127 296 6 298 184 163 164 168 175 169 175 153 167 157 170 170 163 179 189 179 204 212 233 216 221 175 190 194 221 210 221 191 203 201 203 165 242 188 165 210 210
234 150 82 107 124 117 138 116 107 82 36 150 151 161 167 174 168 161 186 161 171 167 165 168 164 161 203 207 199 246 268 208 247 219 202 215 225 217 235 221 188 206 228 192 192 204 193 193 213
85 174 160 153 128 144 158 134 221 90 109 129 148 161 166 174 172 158 167 154 186 163 158 156 161 176 191 200 211 256 255 272 272 321 270 232 232 226 214 210 184 181 207 231 203 201 205 210 212
148 174 245 163 162 131 170 137 90 114 129 139 151 159 159 171 161 169 182 174 170 174 157 159 180 175 189 195 215 234 259 246 289 323 333 261 246 219 238 192 184 184 197 207 210 207 209 231 214
176 232 242 150 201 145 241 93 129 143 149 152 151 162 173 182 186 185 172 198 177 185 182 183 187 195 186 197 200 253 242 255 336 304 297 235 223 241 215 209 168 196 199 199 202 206 218 220 222
208 224 205 162 214 246 238 104 140 160 170 161 167 174 182 182 212 202 196 191 161 189 192 188 190 207 213 188 237 233 256 259 296 271 76 289 216 211 253 136 161 182 182 195 208 210 225 222 222
328 285 177 229 156 222 204 109 151 168 181 174 177 184 187 194 193 194 205 201 194 187 194 204 192 195 212 243 215 250 258 267 260 252 257 268 242 228 279 115 140 181 174 171 207 193 202 244 215
291 278 318 84 141 247 215 167 173 173 185 183 187 190 195 197 183 174 185 192 192 193 204 217 213 218 232 213 218 226 250 231 230 249 267 254 252 227 241 219 177 190 194 184 195 188 190 200 208
242 248 209 138 174 232 181 212 173 186 192 193 196 195 201 193 191 202 209 215 214 210 222 226 231 231 222 213 223 250 269 238 276 268 282 249 240 224 226 224 205 178 172 176 188 208 200 220 198
220 258 232 310 160 205 211 214 186 187 200 195 205 209 202 205 209 199 205 214 216 227 229 229 231 229 222 222 199 210 232 251 233 220 222 183 222 228 215 213 215 201 227 171 189 198 220 204 200
14 345 224 198 232 183 222 118 192 184 198 204 205 206 206 203 206 214 208 208 216 218 218 227 230 221 207 196 201 214 234 231 213 263 353 269 229 236 227 221 209 221 257 180 195 202 223 246 218
3 284 223 212 239 291 170 247 113 192 199 204 207 201 204 198 202 208 217 219 214 211 217 221 212 215 214 187 214 202 228 214 225 234 228 255 233 245 235 222 211 215 234 183 239 223 217 209 238
157 159 172 202 257 215 91 290 158 180 218 201 202 204 203 197 200 204 209 211 215 214 219 213 189 195 197 197 200 215 226 238 238 223 252 249 244 190 200 213 235 244 237 227 221 225 228 241 250
241 254 223 200 182 52 75 258 19 162 172 202 200 201 202 201 200 206 210 211 214 211 207 211 189 193 189 195 197 204 214 220 233 242 237 288 253 203 164 226 228 234 230 238 260 221 249 243 250
236 328 305 310 19 3 120 262 86 149 152 172 205 197 200 200 200 203 202 202 195 202 196 199 186 195 192 196 201 204 211 216 219 220 253 246 270 250 113 204 237 237 244 237 237 234 235 231 232
106 227 11 291 183 229 78 102 160 162 172 182 199 194 206 198 202 199 196 202 197 200 202 205 203 200 200 193 198 201 207 222 217 230 217 230 236 241 200 221 228 254 267 262 257 252 252 247 248
267 356 239 180 322 323 82 122 53 181 188 185 188 209 201 196 200 196 202 193 195 205 198 196 209 211 205 213 197 204 205 210 218 222 228 243 258 238 257 258 250 264 264 263 261 259 247 256 263
169 219 208 288 286 319 303 89 43 138 142 172 149 163 183 176 183 175 183 179 187 202 208 220 207 224 226 215 216 216 207 208 212 220 225 224 229 192 191 165 185 241 265 254 258 282 315 308 289
289 294 293 286 108 265 297 22 103 135 135 120 120 132 138 161 147 142 145 152 152 173 176 205 298 282 239 214 208 207 215 211 208 205 210 191 182 174 181 195 193 201 206 225 264 303 319 299 300